Location: Unspecified
(50.7693°N, 0.0000°E)
Time: 04:40:08
(UTC+00:00)

Transit 2A - Pass Details

Date: 27 June 2019
Orbit: 594 x 964 km, 66.7° (Epoch: 20 July)

Event Time Altitude Azimuth Distance (km) Brightness Sun altitude
Exits shadow 01:01:15 - 249° (WSW) 3,534 9.1 -14.8°
Reaches altitude 10° 01:03:44 10° 256° (WSW) 2,697 8.5 -14.7°
Maximum altitude 01:09:35 37° 323° (NW) 1,421 7.7 -14.4°
Drops below altitude 10° 01:15:11 10° 30° (NNE) 2,582 10.0 -14.2°
Sets 01:17:50 0° 39° (NE) 3,474 10.8 -14.1°
